Regional Weather Roundup
Issued by NWS

Home | Current Version | Previous Version | Graphics & Text | Print | Product List | Glossary Off
Versions: 1 2 3 4 5 6 7 8 9 10 11 12 13 14 15 16 17 18 19 20 21 22 23 24 25 26 27 28 29 30 31 32 33 34 35 36 37 38 39 40 41 42 43 44 45 46 47 48 49 50

000
ASUS43 KDMX 210806
RWRIA

WEATHER ROUNDUP FOR IOWA
NATIONAL WEATHER SERVICE DES MOINES IA
200 AM CST SUN JAN 21 2018

NOTE: "FAIR" INDICATES FEW OR NO CLOUDS BELOW 12,000 FEET WITH NO
SIGNIFICANT WEATHER AND/OR OBSTRUCTIONS TO VISIBILITY.

* - THESE STATIONS ARE NOT NWS STATIONS...THUS NOT UNDER NWS
QUALITY CONTROL.  THEY ALSO DO NOT REPORT WEATHER SUCH
AS PRECIPITATION OR FOG.

IAZ001>003-012>014-020>022-031>034-043>046-210900-
   NORTHWEST IOWA

CITY           SKY/WX    TMP DP  RH WIND       PRES   REMARKS
CARROLL *      CLOUDY    34  32  93 NW6       29.87F FOG     WCI  29
CHEROKEE *     PTCLDY    30  30 100 N7        29.89F WCI  23
DENISON *      CLOUDY    34  34 100 NE6       29.88F WCI  29
LE MARS *      CLOUDY    28  27  93 N5        29.90S WCI  23
ORANGE CITY *  CLOUDY    34  30  86 NE5       29.90S WCI  30
SHELDON *      CLOUDY    28  28 100 E5        29.90R WCI  23
SIOUX CITY     CLOUDY    32  29  88 E5        29.89R WCI  27
SPENCER        CLOUDY    29  26  89 NE6       29.91F WCI  23
STORM LAKE *   CLOUDY    32  30  93 NE9       29.88S WCI  24
$$

IAZ055>058-069>071-079>083-090>094-210900-
   SOUTHWEST IOWA

CITY           SKY/WX    TMP DP  RH WIND       PRES   REMARKS
ATLANTIC *     CLOUDY    37  37 100 NE6       29.86S WCI  33
AUDUBON *      CLOUDY    37  36  93 CALM      29.87S
CLARINDA *     CLOUDY    39  39 100 N5          N/A
COUNCIL BLFS * CLOUDY    39  39 100 N3        29.84S
CRESTON *      CLOUDY    41  39  93 E6        29.85F
HARLAN  *      CLOUDY    37  37 100 N6        29.89S WCI  33
LAMONI         CLOUDY    43  40  89 E6        29.84F
RED OAK *      CLOUDY    41  39  93 N6        29.84F
SHENANDOAH *   CLOUDY    39  39 100 NE7       29.84S FOG     WCI  34
$$

IAZ047>049-059>061-072>074-084-210900-
   CENTRAL IOWA

CITY           SKY/WX    TMP DP  RH WIND       PRES   REMARKS
AMES           CLOUDY    36  36 100 CALM      29.89F FOG
ANKENY *       CLOUDY    37  36  93 N5        29.90R FOG     WCI  34
BOONE *        CLOUDY    36  34  93 E3        29.88R FOG
CHARITON *     CLOUDY    43  41  93 E5        29.86F
DES MOINES     CLOUDY    39  36  89 NE5       29.87F
GRINNELL*      CLOUDY    37  35  94 E3        29.91S FOG
KNOXVILLE *    CLOUDY    41  37  87 E7        29.87S
MARSHALLTOWN   CLOUDY    36  36 100 SE3       29.90S FOG
NEWTON *       CLOUDY    37  37 100 E7        29.89S FOG     WCI  32
PELLA *        CLOUDY    40  37  91 E3        29.90S FOG
PERRY *        CLOUDY    37  36  96 E3        29.88S FOG
$$

IAZ004>006-015-016-023>025-035-036-210900-
   NORTH CENTRAL IOWA

CITY           SKY/WX    TMP DP  RH WIND       PRES   REMARKS
ALGONA *       CLOUDY    30 N/A N/A N6        29.92R WCI  24
CLARION *      CLOUDY    32  32 100 NE8       29.89F WCI  25
ESTHERVILLE    CLOUDY    28  27  96 N9        29.91F WCI  19
FORT DODGE *   CLOUDY    29  28  96 N3        29.90S FOG
MASON CITY     CLOUDY    26  24  92 N7        29.92S FOG     WCI  18
FOREST CITY *    N/A     30  28  93 N3        29.92R FOG
WEBSTER CITY * CLOUDY    30  30 100 N5        29.87S FOG     WCI  25
IOWA FALLS *   CLOUDY    32  31  97 CALM      29.90S FOG
$$

IAZ007>011-017>019-026>030-037>042-050>054-066-210900-
   NORTHEAST IOWA

CITY           SKY/WX    TMP DP  RH WIND       PRES   REMARKS
CEDAR RAPIDS   CLOUDY    38  36  92 E6        29.91S FOG     WCI  33
CHARLES CITY *   N/A     30  30 100 E3        29.92S FOG
CLINTON *      CLOUDY    36  35  96 E6        29.95F FOG     WCI  31
DECORAH *        N/A     32  32 100 CALM      29.91S FOG
DUBUQUE        MOCLDY    33  30  88 CALM      29.93R FOG
MONTICELLO *   CLOUDY    32  32 100 CALM      29.93S FOG
OELWEIN *      FOG       28  28 100 NE7       29.92S VSB<1/4 WCI  21
WATERLOO       FOG       27  25  92 NE5       29.91F VSB 3/4 WCI  22
$$

IAZ064-065-067-068-078-210900-
   EAST CENTRAL IOWA

CITY           SKY/WX    TMP DP  RH WIND       PRES   REMARKS
DAVENPORT      CLOUDY    41  37  86 E5        29.95S FOG
IOWA CITY      CLOUDY    39  35  86 CALM      29.94S
MT. PLEASANT * CLOUDY    41  37  87 SE5       29.92S
MUSCATINE *    CLOUDY    39  36  87 N3        29.94S
QUAD CITIES    CLOUDY    40  37  89 E6        29.93S
$$

IAZ062-063-075>077-085>089-095>099-210900-
   SOUTHEAST IOWA

CITY           SKY/WX    TMP DP  RH WIND       PRES   REMARKS
BURLINGTON     CLOUDY    43  38  82 SE8       29.91F
FAIRFIELD *    CLOUDY    41  39  93 E5        29.90S
FORT MADISON * CLOUDY    43  39  87 SE6       29.92F
KEOKUK *       CLOUDY    43  39  87 SE6       29.91S
OSKALOOSA *    CLOUDY    39  37  93 E5        29.90S FOG
OTTUMWA        CLOUDY    41  38  89 E7        29.89S
WASHINGTON *   CLOUDY    39  39 100 CALM      29.92S FOG
$$

ABBREVIATIONS USED IN REMARKS
   TC - TEMPERATURES IN CELSIUS
  WCI - WIND CHILL INDEX
   HX - HEAT INDEX
  VSB - VISIBILITY
$$





USA.gov is the U.S. government's official web portal to all federal, state and local government web resources and services.